FENGYUN 1C DEB, 31088

Orbit data source: Space-Track

FENGYUN 1C DEB, 31088 is space debris in SSO originally from a launch on Mon, 10 May 1999 UTC launched from the Taiyaun Space Center, China (TSC). Fengyun 1C debris stems from the Chinese weather satellite Fengyun-1C, which was intentionally destroyed by a Chinese anti-satellite missile in 2007. This event dramatically increased the amount of space debris, with thousands of trackable fragments posing hazards to satellites and human spaceflight. The Fengyun 1C debris cloud has become a focal point in discussions about space sustainability and the need for international regulations to prevent the creation of new debris.

Loading next visibility...
Identifier
31088, 1999-025BGJ
Orbit
SSO
Country
Flag of CNCN / PRC
Related business
Manufacturer
Unknown
Mission
Spacecraft
Bus & Motor
Unknown
Mass
Unknown
Launch date (UTC)
1999-05-10 (27 years ago)
Launch vehicle
Unknown
Launch site
Taiyaun Space Center, China (TSC)
Object type
Payload
Rocket body
Debris
Shape & HBR
Unknown shape, 0.1 m
Radar Cross Section
Small (<0.1 m²)

Expand to show TLE details & history
Last TLE update: 1 day ago

TLE from 1 day ago
0 FENGYUN 1C DEB
1 31088U 99025BGJ 26121.16122806  .00003362  00000-0  13209-2 0  9994
2 31088  99.3966 197.2769 0027198  24.7271   5.2798 14.29843810985413
Epoch: 2026-05-01T03:52Z
TLE epoch observation values (Epoch: 2026-05-01T03:52:10.104Z)
Latitude
29.64334°
Longitude
-85.23766°
Altitude
776.51 km
Speed
7.479 km/s
True Right ascension
12h 47m 36s
True Declination
29° 29' 46"
Sunlit
Object was in full shadow at epoch
Visualization orbit readout
Latitude
Unknown
Longitude
Unknown
Altitude
Unknown
Speed
Unknown
Apparent Right ascension
Unknown
Apparent Declination
Unknown
Sunlit
N/A
Visualization observer readout
Local Sidereal Time
20:05:36
Azimuth
Unknown
Elevation
Unknown
Doppler factor
Unknown
Orbital elements
Apogee altitude
808.927 km
Perigee altitude
769.938 km
Semi-major axis
7,167.57 km
Eccentricity
0.00272
Inclination
99.3966°
RAAN
197.2769°
Arg. of periapsis
24.7271°
True anomaly
5.30858°
Mean anomaly
5.2798°
Eccentric anomaly
5.29418°
Mean motion
3.57672 °/min
Orbital period
100.65 mins
BSTAR
0.0013209
Loading maneuver chart data...
Computing Atmospheric mass density...

Documentation

Showing up to 5 results
|